Regional Weather Roundup
Issued by NWS

Home | Current Version | Previous Version | Text Only | Print | Product List | Glossary On
Versions: 1 2 3 4 5 6 7 8 9 10 11 12 13 14 15 16 17 18 19 20 21 22 23 24 25 26 27 28 29 30 31 32 33 34 35 36 37 38 39 40 41 42 43 44 45 46 47 48 49 50
000
ASUS44 KFWD 240915
RWRTX
NORTH TEXAS HOURLY WEATHER ROUNDUP
NATIONAL WEATHER SERVICE FORT WORTH TX
300 AM CST FRI FEB 24 2017

NOTE: "FAIR" INDICATES FEW OR NO CLOUDS BELOW 12,000 FEET WITH NO
SIGNIFICANT WEATHER AND/OR OBSTRUCTIONS TO VISIBILITY.

TXZ118-119-241000-
DALLAS/FORT WORTH METROPLEX

CITY           SKY/WX    TMP DP  RH WIND       PRES   REMARKS
DFW AIRPORT    PTCLDY    63  57  81 SW7       29.56F
DALLAS LOVE    PTCLDY    64  59  83 S7        29.58F
FTW MEACHAM    PTCLDY    63  50  62 W9        29.58F
DAL-EXECUTIVE  CLEAR     64  60  87 CALM      29.59F
FTW-ALLIANCE   MOCLDY    63  49  60 W3        29.57F
FTW-NAS-JRB    PTCLDY    62  52  69 W7        29.59F
FTW-SPINKS     PTCLDY    61  55  80 S3        29.62R
ARLINGTON      CLEAR     61  57  87 S7        29.59F
GRAND PRAIRIE  CLEAR     63  57  81 S9        29.60F
ADDISON        PTCLDY    65  58  79 SW3       29.59F
MESQUITE       CLEAR     63  59  88 S12       29.61S
LANCASTER      PTCLDY    62  58  88 S7        29.62S
$$

TXZ091>094-102>105-117-120-121-131>134-241000-
NORTH CENTRAL TEXAS

CITY           SKY/WX    TMP DP  RH WIND       PRES   REMARKS
SHRMAN/DENISON CLEAR     61  56  84 SW10      29.59R
GAINESVILLE    CLEAR     59  39  47 N20G26    29.63R
BOWIE          PTCLDY    52  40  65 N20G25    29.65R
BRIDGEPORT     CLOUDY    68  30  24 NW9       29.63R
DECATUR        PTCLDY    67  28  23 W7        29.61R
DENTON         PTCLDY    61  51  70 W8        29.58S
MCKINNEY       CLEAR     66  59  78 SW8       29.58R
BONHAM         CLEAR     64  57  77 SW14G22   29.57R
GREENVILLE     CLEAR     63  55  77 S14       29.60S
ROCKWALL       CLEAR     64  60  86 SW12G21   29.60F
TERRELL        LGT RAIN  64  58  80 S10       29.62R
WAXAHACHIE     CLEAR     61  61  99 S5        29.62F
CLEBURNE       CLEAR     61  57  88 S5        29.63R
GRANBURY       PTCLDY    59  48  67 W3        29.63R
$$

TXZ083>090-098>101-113>116-127>130-139>142-154-155-241000-
WESTERN NORTH TEXAS

CITY           SKY/WX    TMP DP  RH WIND       PRES   REMARKS
WICHITA FALLS  CLEAR     46  37  71 N21       29.68R WCI  38
WF-KICKAPOO    PTCLDY    48  37  65 N21G32    29.69F
VERNON         CLEAR     44  33  65 N15G25    29.74R WCI  37
ABILENE        CLOUDY    61  28  28 W6        29.68R
ABILENE-DYESS  CLOUDY    60  30  31 W7        29.66R
GRAHAM         PTCLDY    55  39  54 N21G29    29.66R
BRECKENRIDGE   CLOUDY    64  30  27 W5        29.66R
CISCO          CLOUDY    61  30  31 W8        29.67S
RANGER         CLOUDY    63  32  31 SW6       29.65S
MINERAL WELLS  MOCLDY    63  36  36 W9        29.61R
STEPHENVILLE   PTCLDY    59  44  56 CALM      29.67S
COMANCHE       PTCLDY    58  38  46 NW5       29.67R
BROWNWOOD      CLOUDY    50  46  87 CALM      29.68R
COLEMAN        CLOUDY    67  28  23 W3        29.67S
$$

TXZ143>147-156>162-174-175-241000-
CENTRAL TEXAS

CITY           SKY/WX    TMP DP  RH WIND       PRES   REMARKS
WACO           CLEAR     61  58  90 S10       29.62F
WACO-MCGREGOR  CLEAR     61  58  90 S7        29.63S
HILLSBORO      CLEAR     62  59  93 S6        29.63R
CORSICANA      CLEAR     64  61  90 S15       29.63F
MEXIA          CLEAR     62  61  97 S13G22    29.64F
HEARNE         MOCLDY    62  62  98 NW6       29.70S
CAMERON        PTCLDY    65  62  90 SW8       29.69S
TEMPLE         CLEAR     63  59  87 S13       29.65F
KILLEEN        CLEAR     64  56  75 S8        29.64S
KILLEEN-SKYLRK CLEAR     60  56  86 S6        29.66S
FORT HOOD      CLEAR     61  56  82 SE6       29.62S
GATESVILLE     CLEAR     66  55  68 CALM      29.66S
HAMILTON       CLEAR     60  48  64 W8        29.66S
LAMPASAS       CLEAR     60  56  85 W3        29.65S
$$

TXZ095>097-106>112-122>126-135>138-148>153-164>167-241000-
EAST TEXAS

CITY           SKY/WX    TMP DP  RH WIND       PRES   REMARKS
PARIS          PTCLDY    64  54  68 S14       29.58S
SULPHUR SPRNGS CLEAR     65  57  75 SW20G26   29.61S
MOUNT PLEASANT PTCLDY    62  52  71 S9        29.63S
GILMER         PTCLDY    61  55  80 S7        29.65R
MINEOLA        CLEAR     64  55  72 S13G18    29.63S
TYLER          PTCLDY    62  57  83 SW10      29.65R
LONGVIEW       PTCLDY    61  58  90 SW9       29.63R
MARSHALL       CLEAR     58  55  92 S6        29.65R
ATHENS         PTCLDY    59  55  88 S5        29.64F
PALESTINE      PTCLDY    59  58  96 S5        29.69R
JACKSONVILLE   PTCLDY    59  58  98 SW5       29.67R
HENDERSON      PTCLDY    60  58  94 SW5       29.66R
CENTER         MOSUNNY   64  62  96 SE8       29.65S
NACOGDOCHES    CLOUDY    61  57  88 S10G16    29.63F
LUFKIN         MOCLDY    58  57  97 SE6       29.65S
$$

SUPPLEMENTAL OBSERVATIONS (CENTRAL)

CITY           SKY/WX    TMP DP  RH WIND       PRES   REMARKS
DENISON DAM      N/A     64  55  72 W18         N/A
CADDO GRASSLND   N/A     66  55  68 SW10G20     N/A
PAT MAYSE LAKE   N/A     64  55  72 S18         N/A
GREENVILLE       N/A     64  55  72 SW15G24     N/A
CEDAR HILL       N/A     64  59  82 S6          N/A
ATHENS           N/A     61  55  82 S9          N/A
LAKE LIMESTONE   N/A     63  57  82 SW7         N/A
MCGREGOR         N/A     59  54  82 SW5         N/A
TEMPLE           N/A     63  57  82 SW2G13      N/A
$$

SUPPLEMENTAL OBSERVATIONS (WEST)

CITY           SKY/WX    TMP DP  RH WIND       PRES   REMARKS
MILLERS CREEK    N/A     46  34  61 N14G24      N/A
POSSUM KINGDOM   N/A     66  27  22 NW10        N/A
LBJ GRASSLAND    N/A     66  32  28 NW8         N/A
GRANBURY         N/A     57  45  62 W3          N/A
COMANCHE         N/A     61  34  36 W7          N/A
HAMBY            N/A     61  32  33 W7          N/A
IVIE RESERVOIR   N/A     61  34  36 W1          N/A
COLORADO BEND    N/A     63  46  55 W5          N/A
$$

SUPPLEMENTAL OBSERVATIONS (EAST)

CITY           SKY/WX    TMP DP  RH WIND       PRES   REMARKS
CLARKSVILLE      N/A     64  54  68 S12         N/A
TEXARKANA        N/A     61  55  82 S2          N/A
LINDEN           N/A     61  55  82 W5          N/A
GILMER           N/A     61  54  77 SW6         N/A
HENDERSON        N/A     61  57  88 SW10        N/A
LUFKIN           N/A     61  57  88 MISG        N/A
N SABINE NF      N/A     61  59  94 MISG        N/A
S SABINE NF      N/A     61  59  94 SE3         N/A
$$

SUPPLEMENTAL OBSERVATIONS ARE A COLLECTION OF AUTOMATED INSTRUMENTS
THAT ARE MAINTAINED BY A VARIETY OF FEDERAL AND STATE AGENCIES.
CERTAIN ELEMENTS...SUCH AS HUMIDITY VALUES AND SUSTAINED WIND
SPEEDS...MAY BE APPROXIMATED.




USA.gov is the U.S. government's official web portal to all federal, state and local government web resources and services.